PEGASUS DEB, 24051

Orbit data source: Space-Track

PEGASUS DEB, 24051 is space debris in LEO originally from a launch on Thu, 19 May 1994 UTC launched from the Air Force Western Test Range (AFWTR). Debris objects in space refer to the collection of defunct objects orbiting the Earth. Examples of debris include non-operational satellites, rocket bodies, and fragments generated from explosions, collisions, or faulty payload assembly.

Loading next visibility...
Identifier
24051, 1994-029CY
Orbit
LEO
Country
Flag of USUS
Related business
Manufacturer
Unknown
Mission
Spacecraft
Bus & Motor
Unknown
Mass
Unknown
Launch date (UTC)
1994-05-19 (32 years ago)
Launch vehicle
Unknown
Launch site
Air Force Western Test Range (AFWTR)
Object type
Payload
Rocket body
Debris
Shape & HBR
Unknown shape, 0.1 m
Radar Cross Section
Small (<0.1 m²)

Expand to show TLE details & history
Last TLE update: 10 hours ago

TLE from 10 hours ago
0 PEGASUS DEB
1 24051U 94029CY  26062.20345642  .00007839  00000-0  15340-2 0  9990
2 24051  81.2907 144.0230 0341149 102.3508 293.4694 14.31706184501521
Epoch: 2026-03-03T04:52Z
TLE epoch observation values (Epoch: 2026-03-03T04:52:58.634Z)
Latitude
31.82062°
Longitude
-84.78211°
Altitude
699.906 km
Speed
7.556 km/s
True Right ascension
09h 57m 47s
True Declination
31° 39' 56"
Sunlit
Object was in full shadow at epoch
Visualization orbit readout
Latitude
Unknown
Longitude
Unknown
Altitude
Unknown
Speed
Unknown
Apparent Right ascension
Unknown
Apparent Declination
Unknown
Sunlit
N/A
Visualization observer readout
Local Sidereal Time
18:55:46
Azimuth
Unknown
Elevation
Unknown
Doppler factor
Unknown
Orbital elements
Apogee altitude
1,027.479 km
Perigee altitude
538.864 km
Semi-major axis
7,161.308 km
Eccentricity
0.03411
Inclination
81.2907°
RAAN
144.023°
Arg. of periapsis
102.3508°
True anomaly
289.82408°
Mean anomaly
293.4694°
Eccentric anomaly
291.65268°
Mean motion
3.58141 °/min
Orbital period
100.52 mins
BSTAR
0.001534
Loading maneuver chart data...
Computing Atmospheric mass density...

Documentation

Showing up to 5 results
|